Estación de San Julian

Ultimos registro cada 15 minutos 51
Estación Fecha / Hora Temperatura Humedad Lluvia Velocidad Dirección Radiación Presion
51 San Julian 06-05-2026 12:30 22,7 55,4 0 0 24 540,6 987,5
50 San Julian 06-05-2026 12:15 22,5 58,5 0 0 0 535,6 987,6
49 San Julian 06-05-2026 12:00 21 62,1 0 0 8 521,9 987,9
48 San Julian 06-05-2026 11:45 20,3 65,8 0 0 1 510,6 988,2
47 San Julian 06-05-2026 11:30 18,8 69,9 0 0 3 494,4 988,5
46 San Julian 06-05-2026 11:15 18,5 72,1 0 0 0 478,1 988,8
45 San Julian 06-05-2026 11:00 17,4 74,6 0 0 1 455,6 988,9
44 San Julian 06-05-2026 10:45 15,8 79,8 0 0 1 430,6 988,9
43 San Julian 06-05-2026 10:30 15,7 79,6 0 0 0 406,9 989
42 San Julian 06-05-2026 10:15 15,2 87,5 0 0 0 375,6 989,3
41 San Julian 06-05-2026 10:00 13,7 96,4 0 0 0 345,6 988,9
40 San Julian 06-05-2026 09:45 12,4 99,1 0 0 46 315,6 989,1
39 San Julian 06-05-2026 09:30 11,5 100 0 0 18 283,1 989,1
38 San Julian 06-05-2026 09:15 10,5 100 0 0 27 214,4 988,9
37 San Julian 06-05-2026 09:00 10,2 100 0 0 65 170,6 988,9
36 San Julian 06-05-2026 08:45 9,8 100 0 0 55 106,9 989
35 San Julian 06-05-2026 08:30 9,4 100 0 0 41 40,6 988,9
34 San Julian 06-05-2026 08:15 9,5 100 0 0 29 21,9 988,6
33 San Julian 06-05-2026 08:00 9,9 100 0 0 51 10,6 988,5
32 San Julian 06-05-2026 07:45 9,7 100 0 0 34 5,6 988,4
31 San Julian 06-05-2026 07:30 10 100 0 0 20 1,9 988,4
30 San Julian 06-05-2026 07:15 10,1 100 0 0 18 0,6 988,1
29 San Julian 06-05-2026 07:00 10,1 100 0 0 28 0,6 987,9
28 San Julian 06-05-2026 06:45 10,2 100 0 0 28 0,6 987,8
27 San Julian 06-05-2026 06:30 10,3 100 0 0 28 0,6 987,5
26 San Julian 06-05-2026 06:15 10,3 100 0 0 28 0,6 987,4
25 San Julian 06-05-2026 06:00 10,4 100 0 0 28 0,6 987,2
24 San Julian 06-05-2026 05:45 10,3 99,9 0 0 10 0,6 987
23 San Julian 06-05-2026 05:30 10,6 100 0 0 20 0,6 986,3
22 San Julian 06-05-2026 05:15 10,5 99,8 0 0 22 0,6 986,3
21 San Julian 06-05-2026 05:00 10,8 99,8 0 0 320 0,6 986,2
20 San Julian 06-05-2026 04:45 10,8 99,6 0 0 313 0,6 986,6
19 San Julian 06-05-2026 04:30 10,8 99,5 0 0 310 0,6 986,7
18 San Julian 06-05-2026 04:15 10,9 99,5 0 0 314 0,6 986,4
17 San Julian 06-05-2026 04:00 11 99,4 0 0 264 0,6 986,2
16 San Julian 06-05-2026 03:45 11,2 99,4 0 0 198 0,6 986
15 San Julian 06-05-2026 03:30 11,1 99,3 0 0 202 0,6 986,2
14 San Julian 06-05-2026 03:15 11,2 99,3 0 0 209 0,6 986
13 San Julian 06-05-2026 03:00 11,2 99,2 0 0 209 0,6 986,1
12 San Julian 06-05-2026 02:45 11,4 99,2 0 0 209 0,6 986,3
11 San Julian 06-05-2026 02:30 11,3 99,1 0 0 209 0,6 986,1
10 San Julian 06-05-2026 02:15 11,2 99,1 0 0 208 0,6 986,2
9 San Julian 06-05-2026 02:00 11,4 98,9 0 0 202 0,6 985,8
8 San Julian 06-05-2026 01:45 11,3 98,9 0 0 202 0,6 985,8
7 San Julian 06-05-2026 01:30 11,4 98,8 0 0 202 0,6 985,8
6 San Julian 06-05-2026 01:15 11,4 98,7 0 0 202 0,6 985,6
5 San Julian 06-05-2026 01:00 11,5 98,6 0 0 202 0,6 985,7
4 San Julian 06-05-2026 00:45 11,4 98,5 0 0 202 0,6 985,7
3 San Julian 06-05-2026 00:30 11,5 98,4 0 0 202 0,6 985,9
2 San Julian 06-05-2026 00:15 11,5 98,2 0 0 202 0,6 985,8
1 San Julian 06-05-2026 00:00 11,4 98 0 0 202 0,6 986